Temp
62 62 61 61 60 60 59 60 60 61 61 61 61 61 61 61 62 59 67 79 78 73 78 80 80 80 78 71 72 68 57 52 57 64 68 73 69 79 79 72 75 76 73 72 71
61 61 61 61 61 60 59 59 59 60 61 61 61 61 61 61 58 65 77 76 74 76 81 79 76 74 67 67 68 64 53 59 68 70 68 72 73 76 74 72 72 73 71 71 70
61 61 61 61 61 59 59 59 59 60 60 60 60 60 61 59 61 76 79 75 75 80 82 79 76 73 62 65 65 63 59 68 73 76 76 73 72 79 73 66 72 70 66 68 68
60 61 60 60 60 59 59 59 60 60 60 60 60 60 61 58 65 76 77 75 76 81 82 78 71 64 61 64 69 65 71 71 76 78 74 71 72 71 73 73 76 75 70 68 67
60 60 60 60 59 59 59 59 59 60 60 60 60 61 59 60 70 77 76 76 76 81 79 75 69 66 61 66 67 66 71 74 76 76 74 75 73 72 69 73 72 71 70 68 67
59 59 59 59 59 58 58 58 58 59 59 60 61 61 61 61 79 78 75 77 79 79 77 76 73 73 66 68 66 70 71 74 75 74 73 70 67 70 69 71 70 69 67 68 67
59 59 59 59 59 57 58 58 57 58 59 60 61 65 63 73 79 77 79 78 79 82 78 77 77 74 70 66 72 72 66 70 71 71 70 71 64 63 67 69 66 66 66 66 67
59 59 59 59 58 57 57 56 56 58 60 61 62 61 66 77 77 77 77 79 78 79 80 82 80 72 70 75 71 65 64 59 67 69 71 70 60 65 68 65 62 65 66 66 65
59 59 59 58 58 57 57 56 58 59 62 63 58 59 69 76 78 82 82 82 81 80 81 89 76 68 71 64 60 59 53 57 64 70 69 64 60 65 67 65 62 62 65 66 66
59 59 58 58 57 57 56 57 61 60 62 67 72 63 71 75 79 84 81 84 80 78 79 75 68 64 60 60 51 53 54 58 59 67 66 60 59 64 64 64 64 63 64 64 64
59 58 57 57 57 57 53 56 63 62 60 68 68 69 75 82 83 80 83 81 77 74 64 66 64 58 63 63 63 60 57 57 62 68 61 56 59 62 63 61 60 61 61 61 62
59 58 57 57 57 56 50 63 67 69 63 70 71 72 77 78 75 79 83 74 69 64 64 63 58 68 67 67 64 61 60 60 65 66 63 57 59 61 62 61 61 60 61 62 61
58 57 57 57 56 52 56 67 68 69 60 69 71 72 75 79 75 76 81 72 69 63 62 59 66 70 68 66 62 61 59 63 61 62 59 58 55 58 62 63 63 62 62 62 61
58 57 57 56 56 55 62 68 66 67 56 65 69 77 77 77 73 83 82 78 66 67 64 62 65 68 63 64 65 57 68 65 62 56 50 57 45 53 57 59 59 60 59 60 62
57 57 56 55 52 61 68 64 63 69 47 70 69 78 73 74 73 75 80 75 69 67 66 64 65 63 61 65 69 64 68 63 60 53 50 51 46 50 54 55 56 59 59 60 61
57 57 56 52 48 59 62 62 69 57 48 66 72 70 69 69 71 74 75 77 73 67 64 66 67 68 67 70 68 68 61 57 50 47 43 48 47 47 50 55 57 58 58 60 60
57 55 52 59 64 59 61 67 56 50 67 66 65 70 66 66 69 70 68 64 62 54 54 62 64 67 70 62 63 61 52 44 42 41 42 47 45 48 55 59 61 58 57 58 62
54 53 52 57 54 57 66 63 45 60 61 71 70 67 64 68 66 68 64 61 62 60 53 52 53 62 68 62 58 54 52 45 37 36 41 48 43 49 57 59 60 61 58 60 62
53 53 53 58 55 56 65 50 53 59 68 68 68 63 62 66 66 65 60 60 62 62 55 51 55 68 69 67 63 56 50 51 44 41 39 44 49 55 55 55 57 55 58 60 62
48 54 62 60 60 64 58 50 57 66 71 69 58 62 57 59 59 57 58 62 62 64 61 57 51 62 66 67 62 58 59 47 43 37 35 41 43 45 50 52 54 54 55 58 57
53 61 66 62 64 60 51 52 61 70 71 66 62 61 61 60 60 57 59 61 64 64 61 55 53 56 60 56 55 52 49 46 45 42 39 35 41 52 54 53 54 55 55 55 56
51 58 68 66 59 47 51 58 62 69 71 70 66 64 61 61 58 58 58 61 64 64 57 55 50 47 55 58 59 55 52 49 43 41 41 40 40 55 55 55 56 56 57 56 56
51 53 66 68 53 51 56 63 67 67 66 66 64 66 64 59 55 59 60 66 65 62 57 57 49 42 48 52 53 51 53 52 47 45 41 40 42 57 57 56 57 55 55 56 56
53 54 58 57 54 53 53 57 61 70 68 68 66 66 61 58 59 57 59 64 64 61 61 59 48 48 46 48 51 50 53 53 49 40 43 44 48 55 55 55 54 56 55 56 56
53 52 53 51 54 54 53 56 59 61 67 67 63 63 61 53 54 54 57 59 61 60 56 53 46 47 51 55 55 54 55 55 49 50 47 50 49 55 56 55 56 57 56 56 56
49 49 51 51 54 55 51 55 58 62 62 62 61 63 61 56 58 56 55 52 52 55 50 51 47 52 51 55 54 52 55 55 56 55 52 54 52 55 57 58 56 58 57 56 57
48 51 51 51 53 52 54 58 61 62 66 66 65 61 59 60 61 56 56 55 54 52 50 49 46 44 41 50 50 46 50 53 53 57 54 49 54 56 55 57 56 56 56 57 59
MSLP
1016.65 1016.40 1016.15 1016.01 1015.86 1015.69 1015.58 1015.39 1015.24 1015.07 1014.84 1014.65 1014.56 1014.45 1014.32 1014.18 1013.75 1013.83 1012.94 1010.76 1010.67 1010.99 1011.29 1011.67 1012.00 1011.99 1012.40 1012.74 1012.93 1013.40 1014.04 1013.76 1012.67 1011.60 1010.59 1009.97 1010.05 1010.16 1010.46 1011.28 1011.46 1011.97 1012.30 1012.49 1013.18
1016.72 1016.41 1016.15 1015.91 1015.72 1015.59 1015.41 1015.28 1015.09 1014.90 1014.76 1014.65 1014.52 1014.44 1014.40 1014.22 1013.82 1012.76 1010.03 1010.23 1010.70 1010.83 1011.14 1011.41 1011.73 1012.18 1012.84 1013.07 1013.22 1013.45 1013.89 1012.85 1011.38 1010.62 1010.19 1009.92 1009.88 1010.26 1010.67 1011.04 1011.41 1011.91 1012.56 1012.99 1013.55
1016.77 1016.41 1016.09 1015.89 1015.69 1015.56 1015.32 1015.17 1015.03 1014.78 1014.65 1014.53 1014.46 1014.37 1014.31 1014.24 1013.43 1010.39 1008.78 1010.02 1010.48 1010.44 1010.69 1011.15 1011.46 1012.10 1012.74 1012.92 1013.06 1013.22 1012.88 1011.70 1010.33 1009.79 1009.66 1009.59 1009.70 1009.74 1010.16 1010.99 1010.83 1011.28 1012.56 1013.17 1013.81
1016.80 1016.45 1016.14 1015.86 1015.63 1015.48 1015.28 1015.05 1014.81 1014.64 1014.48 1014.46 1014.43 1014.34 1014.25 1014.07 1012.10 1009.28 1009.28 1009.85 1010.15 1010.26 1010.79 1011.22 1011.62 1012.09 1012.33 1012.53 1012.32 1012.59 1011.45 1011.06 1010.09 1009.36 1009.43 1009.49 1009.65 1009.86 1010.04 1009.87 1010.27 1010.87 1011.56 1012.86 1013.39
1016.83 1016.47 1016.11 1015.79 1015.57 1015.36 1015.12 1014.84 1014.60 1014.46 1014.38 1014.39 1014.35 1014.25 1014.04 1013.14 1010.67 1009.22 1009.19 1009.59 1010.33 1010.48 1010.70 1011.16 1011.38 1011.66 1011.86 1011.79 1011.87 1011.81 1010.72 1010.20 1009.49 1009.50 1009.43 1009.26 1009.69 1010.02 1010.59 1010.86 1011.09 1011.38 1011.88 1012.53 1013.35
1016.79 1016.42 1016.00 1015.68 1015.45 1015.21 1014.99 1014.73 1014.45 1014.22 1014.16 1014.10 1014.07 1014.04 1013.59 1011.70 1008.96 1009.12 1009.38 1009.83 1009.76 1010.16 1010.53 1010.89 1010.86 1010.99 1011.15 1011.28 1011.42 1010.65 1010.37 1010.00 1009.46 1009.55 1009.26 1009.50 1010.06 1010.47 1011.28 1011.68 1012.10 1012.33 1012.85 1013.16 1013.68
1016.69 1016.27 1015.92 1015.57 1015.25 1015.06 1014.78 1014.53 1014.28 1014.03 1013.96 1013.91 1013.83 1013.70 1012.90 1009.88 1008.91 1009.18 1009.41 1009.46 1009.43 1009.65 1010.22 1010.36 1010.28 1010.62 1010.62 1010.81 1010.60 1010.50 1010.60 1010.01 1009.61 1009.64 1009.77 1009.96 1010.72 1011.17 1011.65 1012.22 1012.69 1012.98 1013.23 1013.62 1014.05
1016.73 1016.23 1015.85 1015.51 1015.16 1014.88 1014.56 1014.28 1014.02 1013.85 1013.74 1013.71 1013.66 1013.41 1011.45 1008.79 1008.80 1009.07 1009.12 1009.36 1009.53 1009.78 1009.84 1009.80 1009.90 1010.30 1010.50 1010.53 1010.64 1011.01 1010.94 1011.01 1010.19 1010.04 1009.93 1010.38 1011.04 1011.34 1012.38 1012.81 1013.44 1013.74 1013.93 1014.06 1014.29
1016.74 1016.24 1015.83 1015.37 1015.03 1014.65 1014.27 1013.84 1013.50 1013.52 1013.51 1013.54 1013.57 1012.89 1010.34 1008.75 1008.69 1008.29 1008.47 1008.85 1009.29 1009.64 1009.61 1009.71 1010.05 1010.64 1010.73 1011.26 1011.78 1012.00 1011.91 1011.59 1010.73 1010.11 1010.36 1010.95 1011.42 1011.85 1012.70 1013.18 1013.95 1014.13 1014.19 1014.21 1014.53
1016.70 1016.11 1015.61 1015.24 1014.92 1014.50 1013.99 1013.58 1013.41 1013.42 1013.46 1013.37 1012.92 1012.52 1009.78 1008.55 1008.02 1008.14 1008.48 1008.65 1009.06 1009.22 1009.64 1010.01 1010.74 1011.35 1012.02 1011.99 1012.61 1012.41 1012.12 1011.57 1011.25 1010.68 1010.72 1011.42 1011.89 1012.39 1013.03 1013.45 1013.84 1014.12 1014.30 1014.20 1014.29
1016.55 1015.94 1015.48 1015.06 1014.73 1014.42 1013.91 1013.71 1013.80 1013.38 1012.85 1011.76 1011.26 1010.63 1009.32 1008.23 1007.69 1007.88 1008.16 1008.55 1009.04 1009.54 1010.35 1010.76 1011.40 1011.90 1011.66 1011.67 1011.65 1011.80 1011.79 1011.50 1010.98 1010.81 1011.14 1011.77 1012.01 1012.43 1013.07 1013.43 1014.09 1014.15 1014.12 1014.14 1014.26
1016.34 1015.71 1015.11 1014.70 1014.41 1014.09 1014.08 1013.22 1012.02 1011.65 1011.48 1010.49 1010.39 1009.96 1009.12 1008.57 1008.28 1007.97 1007.94 1008.61 1009.29 1010.05 1010.74 1011.34 1011.39 1010.97 1011.27 1011.32 1011.40 1011.49 1011.40 1011.08 1010.66 1010.92 1011.07 1012.11 1012.43 1012.51 1013.03 1013.38 1013.63 1013.93 1013.97 1014.16 1014.51
1016.05 1015.46 1014.86 1014.32 1014.05 1014.02 1013.42 1012.00 1011.33 1011.28 1011.39 1009.91 1009.55 1009.05 1008.40 1008.46 1008.18 1007.79 1008.02 1008.59 1009.22 1010.08 1010.78 1011.39 1010.71 1010.59 1011.08 1011.00 1011.04 1010.76 1010.81 1010.53 1011.10 1011.40 1011.87 1012.39 1012.99 1012.68 1012.73 1012.91 1013.24 1013.63 1013.56 1013.68 1014.15
1015.76 1015.17 1014.60 1013.94 1014.18 1013.54 1012.49 1011.20 1011.17 1011.25 1011.18 1009.63 1008.81 1007.71 1007.82 1007.83 1007.73 1007.18 1007.38 1008.10 1009.11 1009.76 1010.76 1010.96 1010.29 1010.39 1010.70 1010.79 1010.43 1010.52 1009.88 1010.34 1010.84 1011.83 1012.70 1012.91 1013.74 1013.16 1012.95 1013.05 1013.35 1013.46 1013.73 1013.84 1014.13
1015.42 1014.82 1014.41 1014.24 1013.93 1013.09 1011.65 1011.17 1011.01 1011.08 1010.56 1008.79 1007.95 1007.10 1007.49 1007.79 1007.54 1007.22 1007.19 1007.76 1008.63 1009.52 1010.55 1009.78 1009.91 1010.10 1010.52 1009.81 1009.76 1009.78 1009.95 1010.68 1011.22 1012.26 1013.04 1013.74 1014.24 1013.14 1013.41 1013.52 1013.62 1013.82 1013.99 1014.20 1014.52
1014.84 1014.39 1014.03 1013.98 1013.88 1011.79 1011.32 1011.07 1011.03 1011.21 1009.67 1008.15 1007.34 1007.28 1007.67 1007.52 1007.36 1007.21 1007.26 1007.58 1008.31 1009.33 1009.77 1009.47 1009.30 1009.41 1008.90 1008.72 1009.28 1009.53 1010.38 1011.47 1012.70 1013.59 1014.07 1013.54 1014.03 1013.85 1013.46 1012.93 1013.48 1014.12 1014.39 1014.56 1015.02
1014.20 1013.59 1013.55 1012.97 1012.21 1011.43 1011.28 1011.27 1011.66 1010.92 1009.34 1008.43 1007.61 1007.47 1007.51 1007.71 1007.57 1007.54 1007.74 1008.23 1008.98 1009.93 1010.25 1009.79 1009.14 1008.61 1008.54 1008.96 1009.31 1010.05 1011.42 1012.83 1013.97 1014.76 1014.82 1014.48 1014.71 1013.48 1012.68 1012.59 1012.95 1013.89 1014.46 1014.91 1015.30
1013.85 1013.00 1012.88 1012.20 1011.65 1011.50 1011.29 1011.69 1011.74 1010.51 1009.38 1008.18 1007.72 1007.69 1007.88 1007.83 1007.95 1008.01 1008.28 1008.85 1009.33 1009.81 1010.61 1010.51 1009.52 1008.73 1008.57 1008.84 1009.52 1010.66 1012.01 1013.47 1014.44 1015.70 1015.58 1015.10 1014.58 1013.04 1012.86 1013.03 1013.16 1013.78 1014.61 1015.24 1015.67
1013.46 1012.82 1012.69 1011.58 1011.48 1011.98 1011.95 1012.49 1011.69 1010.58 1009.39 1008.67 1007.99 1008.05 1008.29 1008.22 1008.31 1008.57 1009.02 1009.48 1009.78 1010.18 1010.78 1010.80 1009.98 1009.00 1008.89 1009.10 1009.94 1011.21 1012.53 1013.50 1014.80 1016.03 1016.16 1015.26 1014.36 1013.64 1013.59 1013.76 1014.03 1014.45 1015.07 1015.46 1015.92
1014.57 1013.60 1012.34 1011.42 1011.35 1011.54 1012.32 1012.78 1011.66 1010.37 1009.26 1008.68 1008.58 1008.49 1008.73 1008.72 1008.99 1009.35 1009.72 1010.13 1010.41 1010.68 1010.71 1010.96 1010.85 1009.85 1009.59 1009.69 1010.61 1011.27 1012.47 1013.91 1015.24 1016.22 1016.41 1015.65 1015.06 1014.33 1013.99 1014.02 1014.37 1014.81 1015.15 1015.49 1016.05
1014.64 1013.65 1012.06 1011.37 1011.43 1012.15 1013.27 1012.80 1011.37 1009.84 1009.42 1008.86 1008.67 1008.72 1008.99 1009.11 1009.32 1009.74 1010.20 1010.70 1010.84 1010.98 1011.19 1011.60 1011.92 1011.26 1010.84 1010.82 1011.19 1012.17 1013.06 1014.38 1015.43 1016.04 1016.11 1015.88 1014.89 1013.08 1012.98 1013.17 1013.80 1014.53 1015.01 1015.53 1015.94
1015.52 1014.11 1011.85 1011.28 1012.36 1013.76 1013.60 1012.36 1011.02 1009.66 1008.92 1008.65 1008.74 1008.88 1009.03 1009.57 1010.03 1010.30 1010.66 1010.85 1011.18 1011.42 1011.82 1012.28 1012.62 1012.53 1011.76 1011.32 1011.42 1012.00 1012.82 1013.81 1015.34 1015.95 1016.02 1015.62 1013.96 1012.76 1012.64 1012.99 1013.63 1014.28 1014.86 1015.47 1015.73
1016.95 1015.04 1012.12 1011.73 1013.20 1014.02 1013.25 1012.23 1010.90 1009.78 1009.12 1008.82 1008.77 1008.83 1009.35 1010.10 1010.72 1010.84 1011.01 1010.91 1011.37 1011.87 1012.34 1012.48 1013.00 1013.20 1012.52 1012.33 1012.23 1012.34 1012.54 1013.21 1014.33 1014.94 1015.28 1015.33 1013.50 1012.59 1012.57 1013.16 1013.58 1014.12 1014.78 1015.19 1015.56
1017.42 1015.99 1014.10 1013.53 1014.03 1014.07 1013.74 1012.41 1011.07 1009.60 1009.11 1008.91 1009.04 1009.21 1010.01 1010.66 1010.88 1011.27 1011.45 1011.39 1011.96 1012.58 1012.87 1013.08 1013.83 1013.77 1013.34 1012.83 1012.62 1012.68 1012.79 1013.21 1013.84 1014.54 1014.33 1013.91 1012.99 1012.45 1012.65 1012.91 1013.54 1014.12 1014.48 1014.84 1015.42
1017.82 1017.67 1016.91 1015.67 1015.10 1014.66 1013.98 1012.90 1011.70 1010.37 1009.59 1009.33 1009.69 1009.94 1010.34 1011.12 1011.55 1011.75 1011.83 1012.11 1012.65 1013.23 1013.55 1014.03 1014.54 1014.26 1013.63 1013.11 1012.90 1012.81 1012.72 1012.84 1013.25 1013.00 1013.33 1012.73 1012.72 1011.77 1011.74 1012.00 1012.66 1013.21 1014.06 1014.72 1015.20
1019.14 1018.78 1017.63 1016.54 1015.72 1014.82 1014.20 1013.16 1012.16 1011.16 1010.49 1009.90 1010.07 1010.33 1010.70 1011.34 1011.74 1012.13 1012.49 1013.03 1013.46 1013.93 1014.33 1014.83 1014.99 1014.82 1014.06 1013.17 1012.98 1012.81 1012.58 1012.55 1012.31 1012.27 1012.44 1012.08 1011.89 1011.42 1011.21 1011.57 1012.30 1012.88 1013.47 1014.12 1014.47
1019.73 1019.27 1018.84 1017.09 1016.13 1015.26 1014.40 1013.52 1012.51 1012.03 1010.75 1010.45 1010.53 1011.03 1011.47 1011.77 1012.08 1012.68 1012.96 1013.56 1013.91 1014.41 1015.03 1015.39 1015.57 1015.53 1014.84 1013.99 1013.42 1013.18 1012.97 1012.74 1012.46 1012.10 1012.01 1011.93 1011.57 1011.34 1011.55 1011.96 1012.38 1012.84 1013.36 1013.56 1013.68
Wind_Speed
13 13 12 11 11 9 9 8 7 7 7 8 8 9 10 10 9 2 6 10 6 13 6 6 3 2 3 1 2 3 4 3 4 3 4 2 2 2 3 5 4 5 3 1 16
13 13 12 11 11 10 9 9 9 8 7 7 8 8 8 9 2 6 11 6 8 14 5 6 4 5 2 1 1 3 3 6 6 2 3 1 4 4 2 3 4 4 5 11 17
14 14 13 13 12 11 9 7 7 8 7 7 7 7 7 6 1 8 9 14 15 9 5 5 4 5 2 3 4 4 5 4 6 5 3 3 2 6 9 6 8 8 7 12 15
15 14 14 13 13 12 10 9 8 8 8 7 7 7 7 1 7 0 7 18 14 7 7 5 3 3 1 4 5 3 10 6 5 1 1 2 1 2 6 7 4 7 15 14 15
15 15 14 14 13 12 11 10 9 8 7 6 6 6 1 0 9 3 10 18 10 8 7 5 3 3 4 4 4 5 6 6 9 6 4 1 2 5 1 9 8 11 13 16 13
15 15 15 14 14 13 12 10 10 9 7 6 5 6 0 2 1 7 12 9 7 6 6 6 6 7 3 3 5 5 7 8 4 6 4 2 1 1 3 4 7 7 6 7 9
16 15 15 15 15 14 12 11 9 9 8 5 3 2 1 10 3 7 10 6 7 5 5 5 4 2 2 2 3 3 3 5 3 2 2 3 1 3 3 7 5 5 5 5 5
17 17 16 16 16 15 14 13 12 9 7 5 3 1 7 2 2 4 4 5 4 2 2 4 4 3 1 3 7 4 6 6 3 1 1 5 6 5 7 6 1 2 3 4 3
19 18 17 17 17 16 16 15 8 5 3 5 2 1 8 0 2 4 4 3 5 4 5 2 2 1 6 4 6 7 1 2 8 2 3 3 5 3 6 6 2 1 4 3 3
20 19 18 16 17 16 17 3 6 4 1 3 2 2 2 2 3 3 3 5 4 2 4 4 5 4 4 5 3 4 3 3 6 5 5 3 2 5 4 2 4 5 5 5 6
20 20 18 15 16 14 7 2 3 2 1 7 3 2 4 6 1 2 4 5 3 5 1 3 5 3 9 6 4 3 3 5 4 4 4 2 3 4 3 2 0 5 6 6 6
21 20 19 16 16 8 1 3 3 4 6 7 4 6 5 2 3 1 3 4 3 2 3 6 3 8 2 4 5 5 6 7 4 1 5 2 5 3 4 4 6 7 6 5 3
21 20 19 16 12 1 1 4 3 4 2 6 5 4 5 8 6 6 6 4 4 2 4 5 8 4 4 6 4 5 5 4 6 1 2 5 6 4 1 1 1 1 4 3 1
22 21 18 19 1 2 4 0 4 5 5 5 3 6 4 4 4 6 6 7 1 9 8 6 2 7 6 7 5 5 5 5 4 3 3 2 5 5 4 5 4 6 5 4 4
23 21 16 7 3 2 0 6 2 3 4 1 3 2 1 7 2 1 3 4 8 8 7 14 5 6 6 13 5 13 4 3 3 4 5 2 4 8 2 5 4 4 4 3 2
26 22 14 1 1 6 5 4 3 7 2 3 4 4 5 1 1 1 3 3 2 5 3 10 1 8 10 8 6 3 1 6 5 3 0 5 7 6 6 9 4 1 2 4 4
29 25 3 0 3 5 4 4 7 3 3 6 2 4 4 2 2 4 2 0 3 1 3 5 5 4 4 1 1 5 6 4 5 4 7 2 3 10 5 4 8 9 6 5 6
32 17 6 4 3 6 3 7 1 2 5 5 3 3 4 0 1 1 2 1 3 4 2 2 8 1 1 2 4 3 7 6 7 5 6 2 5 7 1 3 4 8 7 6 6
25 2 2 4 4 1 8 4 7 6 4 5 5 6 5 2 1 3 3 3 1 4 6 4 5 3 4 2 2 0 3 3 5 2 2 3 6 3 2 2 5 8 10 9 10
4 4 4 4 3 4 7 4 4 4 4 3 1 2 3 1 2 1 3 2 2 4 1 2 3 1 1 2 5 3 4 2 3 2 4 4 4 7 5 7 5 6 8 9 6
3 4 4 2 2 7 4 7 5 8 5 4 4 3 4 1 2 1 3 1 2 4 4 2 3 6 1 3 5 1 1 5 4 4 4 1 7 6 9 11 13 9 8 9 8
4 3 3 2 6 1 3 5 5 4 4 6 4 5 3 2 3 3 2 3 1 2 2 2 5 4 9 1 2 2 5 5 5 4 1 3 9 3 6 9 9 10 8 6 6
3 3 4 4 3 2 5 5 4 2 2 2 2 3 3 3 4 1 2 3 2 2 3 4 2 2 10 6 3 4 5 5 4 3 6 5 8 2 4 5 7 9 8 8 7
2 3 5 5 1 3 4 4 5 3 2 4 3 4 4 4 4 4 2 2 2 3 7 3 1 7 8 8 1 3 1 3 4 3 4 7 6 5 6 7 6 7 7 8 7
4 1 1 3 3 3 1 3 4 5 5 4 4 3 5 3 1 2 2 4 4 5 4 4 3 1 6 7 4 5 10 6 8 6 5 6 7 9 8 11 10 9 6 7 8
3 4 5 3 3 3 2 2 3 6 2 3 5 1 3 5 5 5 1 1 2 4 2 2 3 4 4 4 2 5 7 7 10 8 7 7 8 5 2 4 7 10 10 10 9
3 2 2 4 3 1 2 3 4 6 1 0 7 4 2 1 3 4 3 4 2 2 2 2 1 3 5 5 6 5 4 4 5 6 5 2 3 3 3 3 1 2 6 10 10
Wind_Direction
358 356 357 359 355 352 343 338 330 324 324 320 324 330 336 335 314 125 230 212 182 147 117 128 127 117 79 50 87 122 52 292 256 216 277 28 77 47 93 125 215 177 146 172 143
1 355 353 352 354 349 343 336 328 324 321 320 326 331 334 338 347 251 244 167 135 156 115 157 177 127 69 149 221 111 117 229 214 217 222 215 110 144 183 217 213 171 80 131 142
2 356 351 350 350 348 340 328 313 313 313 323 325 327 327 328 52 242 208 139 158 174 153 164 91 131 165 158 193 183 208 234 260 234 196 251 222 201 157 230 218 201 142 156 146
0 355 350 347 348 347 339 327 316 311 312 319 318 319 312 167 161 65 78 148 163 164 133 136 127 115 261 200 200 198 243 230 286 290 274 220 179 199 196 225 282 163 160 154 170
357 353 349 346 344 342 336 325 314 307 306 308 309 318 174 13 253 78 94 142 147 159 160 153 168 163 215 212 167 228 263 240 247 287 255 232 332 225 15 353 71 122 150 166 174
350 348 344 345 343 336 331 319 309 303 302 305 308 314 36 253 157 91 122 137 164 150 155 162 202 205 259 231 185 227 249 303 310 347 354 222 90 1 35 28 100 137 144 157 165
342 341 340 341 341 336 326 317 301 296 294 288 282 262 145 235 74 131 147 186 170 162 136 210 204 167 212 263 248 290 303 342 344 24 326 125 340 290 218 98 125 135 139 137 152
337 335 337 338 338 335 327 316 302 287 283 254 220 185 243 248 137 165 178 137 182 189 154 186 213 256 199 318 11 47 51 15 316 313 354 127 267 265 44 87 81 98 129 149 141
337 335 336 335 336 332 329 315 285 232 211 162 166 79 270 307 268 205 157 130 138 155 222 183 137 69 19 57 11 7 298 321 318 307 292 24 254 332 67 77 100 199 216 223 215
338 336 334 333 336 334 326 289 116 138 192 209 249 18 282 238 228 142 152 103 99 14 55 60 53 64 25 69 223 247 288 264 249 282 68 21 326 24 63 128 203 216 230 247 258
337 335 332 331 334 331 341 117 16 8 44 194 206 237 290 287 246 176 142 100 81 76 133 5 73 221 219 192 209 209 225 223 249 288 78 326 198 153 136 281 224 240 252 255 244
335 334 329 328 332 317 223 147 170 173 319 229 239 273 263 326 326 242 116 122 114 181 126 22 226 234 214 227 215 222 261 273 271 148 132 125 270 272 172 180 192 221 244 241 124
333 331 327 327 332 164 232 225 76 34 134 292 188 199 209 150 209 249 134 126 156 195 171 170 232 129 176 273 270 222 204 242 216 130 59 119 307 292 326 237 215 220 261 269 318
333 331 331 328 359 261 258 281 342 176 66 279 255 266 145 162 262 199 188 139 169 210 149 230 248 206 199 251 211 284 213 231 227 108 239 138 262 281 227 298 11 339 5 261 247
332 331 330 329 291 192 116 334 112 67 56 212 215 112 80 157 243 7 186 69 198 190 132 242 224 190 189 226 163 241 138 244 209 186 114 219 109 265 86 248 262 282 352 51 122
331 328 325 148 214 251 317 324 70 42 20 17 133 154 123 264 263 275 151 82 162 148 273 250 251 165 218 250 185 263 120 51 53 97 136 217 149 268 190 196 189 185 50 107 110
332 326 276 208 217 324 313 60 39 123 336 333 203 158 167 172 253 191 193 338 164 92 284 313 243 261 178 235 69 83 63 315 333 343 235 88 83 240 236 195 164 170 169 125 127
331 324 197 231 304 352 69 51 131 298 272 306 43 99 117 356 45 37 102 128 137 85 79 225 331 320 169 198 191 169 154 175 230 233 268 79 236 257 206 20 57 129 132 143 172
324 311 280 276 219 145 73 78 210 212 288 345 347 61 6 27 106 42 10 185 246 181 175 182 277 298 47 90 80 163 222 169 113 23 51 254 297 325 63 88 99 130 153 169 189
331 330 327 351 142 60 76 228 241 225 322 3 172 105 174 231 82 117 202 322 311 57 348 254 280 258 278 88 39 163 150 65 6 236 258 286 277 245 223 207 177 169 174 178 191
4 37 299 1 48 49 143 233 267 240 215 215 218 172 222 214 147 278 346 340 3 319 64 113 139 289 2 207 205 74 282 48 120 143 185 267 263 217 227 187 185 195 191 184 191
340 46 302 30 53 56 157 204 266 273 211 254 158 208 130 56 39 55 310 219 195 221 252 168 157 228 231 303 112 165 211 151 138 229 226 148 268 312 241 178 170 199 191 195 199
6 276 310 79 97 327 300 283 256 292 271 184 152 94 58 129 107 171 284 236 204 238 198 192 237 346 331 350 2 222 192 161 123 78 193 150 262 22 142 170 197 186 188 191 203
358 5 329 44 68 103 356 270 295 274 275 69 92 80 83 42 23 180 253 314 72 63 56 65 72 193 244 230 233 279 263 180 141 144 190 221 267 271 228 217 175 182 198 185 198
18 13 155 318 11 353 225 314 322 353 3 34 40 66 153 116 357 266 248 314 49 0 51 78 257 310 278 265 235 245 267 244 200 223 186 242 213 260 227 204 193 187 176 184 201
45 14 348 285 303 336 57 9 317 325 10 337 127 111 113 146 197 240 169 211 241 12 62 42 284 335 294 330 3 281 278 299 244 247 254 269 277 264 314 118 143 179 184 202 210
322 322 105 283 338 22 329 326 288 349 301 331 151 115 122 183 127 121 111 79 56 153 85 72 15 27 272 344 328 309 343 314 310 30 305 243 310 335 81 116 139 217 189 209 221